This is the latest recevied weather packets stored in our database for station/object KD0TNH-13. If no packets are shown the sender has not sent any weather packets the latest 10 day(s).
| Time | Temp. | Humidity | Pressure | Rain* | Wind** | Luminosity | Snow |
|---|---|---|---|---|---|---|---|
| 1787776398 | 23.33° C | 81% | 29 hPa | 0 mm | 0.89 m/s, 192° | - | - |
| 1787776097 | 22.78° C | 82% | 29 hPa | 0 mm | 0.45 m/s, 120° | - | - |
| 1787775796 | 22.78° C | 85% | 29 hPa | 0 mm | 0 m/s | - | - |
| 1787775496 | 22.78° C | 83% | 29 hPa | 0 mm | 0 m/s | - | - |
| 1787775195 | 22.78° C | 86% | 29 hPa | 0 mm | 0 m/s | - | - |
| 1787774895 | 22.78° C | 84% | 29 hPa | 0 mm | 0 m/s | - | - |
| 1787774594 | 22.78° C | 82% | 29 hPa | 0 mm | 0 m/s | - | - |
| 1787774293 | 22.78° C | 84% | 29 hPa | 2.79 mm | 0 m/s | - | - |
| 1787773993 | 22.22° C | 84% | 29 hPa | 2.79 mm | 0 m/s | - | - |
| 1787773693 | 22.22° C | 86% | 29 hPa | 5.84 mm | 0 m/s | - | - |
| 1787773392 | 21.67° C | 85% | 29 hPa | 11.18 mm | 0 m/s | - | - |
| 1787773091 | 21.67° C | 88% | 29 hPa | 11.18 mm | 0 m/s | - | - |
| 1787772791 | 21.11° C | 88% | 29 hPa | 11.18 mm | 0 m/s | - | - |
| 1787772491 | 20.56° C | 87% | 29 hPa | 8.64 mm | 0 m/s | - | - |
| 1787772190 | 20.56° C | 92% | 29 hPa | 8.64 mm | 0 m/s | - | - |
| 1787771889 | 20.56° C | 92% | 29 hPa | 8.64 mm | 0 m/s | - | - |
| 1787771589 | 20.56° C | 92% | 29 hPa | 8.64 mm | 0 m/s | - | - |
| 1787771289 | 20.56° C | 92% | 29 hPa | 7.11 mm | 0 m/s | - | - |
| 1787770988 | 20.56° C | 91% | 29 hPa | 5.59 mm | 0 m/s | - | - |
| 1787770687 | 21.11° C | 91% | 29 hPa | 5.59 mm | 0.45 m/s, 11° | - | - |
| 1787770386 | 21.67° C | 88% | 29 hPa | 5.33 mm | 0 m/s | - | - |
| 1787770085 | 22.22° C | 87% | 29 hPa | 0 mm | 0 m/s | - | - |
| 1787769785 | 22.78° C | 83% | 29 hPa | 0 mm | 0 m/s | - | - |
| 1787769484 | 23.33° C | 79% | 29 hPa | 0 mm | 0 m/s | - | - |
| 1787769184 | 23.89° C | 76% | 29 hPa | 0 mm | 0.45 m/s, 127° | - | - |
* Rain latest hour (hover to see other rain measurements)
** Current wind speed in m/s (hover to see current wind gust speed)